Flag for Switzerland Weather past 2 weeks in Monthey, Valais, Switzerland

Now
64 °F

Mild.


Feels Like: 64 °F
Forecast: 66 / 86 °F
Wind: 3 mph from South

Location: Aigle

Current Time: Aug 30, 2015 at 3:55:03 AM

Latest Report: Aug 30, 2015 at 3:00 AM


Visibility: N/A

Pressure: 30.14 "Hg

Humidity: 93%

Dew point: 62 °F

Location of MontheyLocation

Historic Weather in Monthey — Graph

°F

Monthey temperature yesterday

Maximum temperature yesterday: 82 °F (at 6:00 PM)
Minimum temperature yesterday: 59 °F (at 7:00 AM)
Average temperature yesterday: 71 °F

Past Weeks' High & Low Weather Summary

 TemperatureHumidityPressure
High83 °F (Aug 28, 5:00 PM)98% (Aug 15, 5:00 AM)30.24 "Hg (Aug 15, 5:00 AM)
Low51 °F (Aug 20, 7:00 AM)37% (Aug 20, 6:00 PM)29.70 "Hg (Aug 24, 5:00 AM)
Average64 °F79%30.00 "Hg
* Reported Aug 15 2:00 AM — Aug 30 2:00 AM, Monthey, Weather by CustomWeather, © 2015

Note: Actual official high and low records may vary slightly from our data, if they occured in-between our weather recording intervals... More about our weather records

Advertising

Monthey weather history for previous 24 hours

 ConditionsComfort  
Time TempWeatherWind HumidityBarometerVisibility
2:00 AM
Sun, Aug 30
65 °FMild.3 mph91%30.14 "HgN/A
1:00 AM65 °FMild.2 mph91%30.14 "HgN/A
12:00 AM66 °FMild.3 mph94%30.14 "HgN/A
10:00 PM
Sat, Aug 29
69 °FMild.3 mph91%30.11 "HgN/A
9:00 PM70 °FMild.3 mph87%30.10 "HgN/A
7:00 PM80 °FWarm.1 mph66%30.05 "HgN/A
6:00 PM82 °FWarm.2 mph53%30.05 "HgN/A
5:00 PM81 °FPassing clouds.5 mph53%30.06 "Hg19 mi
4:00 PM82 °FWarm.3 mph60%30.06 "HgN/A
3:00 PM80 °FWarm.5 mph58%30.09 "HgN/A
1:00 PM79 °FWarm.7 mph60%30.13 "HgN/A
12:00 PM77 °FMild.5 mph57%30.15 "HgN/A
10:00 AM72 °FMild.2 mph67%30.16 "HgN/A
9:00 AM68 °FMild.1 mph79%30.18 "HgN/A
7:00 AM59 °FCool.1 mph95%30.19 "HgN/A
4:00 AM61 °FCool.No wind91%30.16 "HgN/A
3:00 AM62 °FCool.5 mph92%30.15 "HgN/A
Weather by CustomWeather, © 2015

See weather overviewHow to use our weather pages